Date String (YYYY-MM-DD hh:mm:ss) UTC,Instrument flags,absolute air pressure of the measurement (hPa),sample flow rate (lpm),inlet stack bypass flow (lpm),air temperature of the measurement (°C),ambient temperature measured by the external sensor (°C),aerosol sample conditioner tube jacket temperature (°C),OPC LED temperature (°C),internal box temperature (°C),relative humidity of the measurement (%),span deviation,mass concentration of particles derived from Lorenz-Mie calculation of OPC scattering (μg/m³),mass concentration of particles derived from Lorenz-Mie calculation of OPC scattering (μg/m³),mass concentration of particles derived from Lorenz-Mie calculation of OPC scattering (μg/m³)
DateTimeUTC,F1_M11,P_M11,Q1_M11,Q2_M11,T1_M11,T2_M11,T3_M11,T4_M11,T5_M11,U1_M11,ZSPAN_M11,X0_M11,X2_M11,X1_M11
2023-11-06 23:00:00,SystemResetWarning,0823.5,4.98,000.00,027.8,026.9,000.0,036.0,029.5,11.0,0006.7,0021.71,0005.94,0004.57
2023-11-06 23:01:00,SystemResetWarning,0823.6,5.00,000.00,027.9,027.0,000.0,036.0,029.5,11.0,0006.3,0021.36,0005.93,0004.58
2023-11-06 23:02:00,SystemResetWarning,0823.6,5.02,000.00,027.9,027.1,000.0,036.0,029.6,11.0,0006.0,0020.45,0005.93,0004.59
2023-11-06 23:03:00,SystemResetWarning,0823.6,5.01,000.00,027.9,027.2,000.0,036.1,029.6,11.0,0005.7,0020.78,0005.97,0004.60
2023-11-06 23:04:00,SystemResetWarning,0823.6,4.98,000.00,028.0,027.2,000.0,036.1,029.6,11.0,0005.6,0021.75,0006.00,0004.60
2023-11-06 23:05:00,SystemResetWarning,0823.6,4.99,000.00,028.0,027.3,000.0,036.1,029.7,10.9,0005.4,0021.96,0006.02,0004.59
2023-11-06 23:06:00,SystemResetWarning,0823.6,5.01,000.00,028.1,027.3,000.0,036.2,029.7,10.9,0005.5,0022.40,0006.02,0004.58
2023-11-06 23:07:00,SystemResetWarning,0823.6,5.00,000.00,028.1,027.4,000.0,036.2,029.7,10.8,0005.5,0021.90,0005.97,0004.58
2023-11-06 23:08:00,SystemResetWarning,0823.5,4.98,000.00,028.1,026.1,000.0,036.2,029.7,10.7,0005.3,0022.20,0005.94,0004.59
2023-11-06 23:09:00,SystemResetWarning,0823.4,5.00,000.00,028.0,023.9,000.0,036.1,029.3,10.8,0005.0,0021.30,0005.92,0004.61
2023-11-06 23:10:00,SystemResetWarning,0823.4,5.01,000.00,027.9,023.3,000.0,036.1,029.0,10.9,0004.7,0019.80,0005.81,0004.60
2023-11-06 23:11:00,SystemResetWarning,0823.4,5.01,000.00,027.7,023.7,000.0,036.0,028.6,11.1,0004.7,0019.80,0005.83,0004.62
2023-11-06 23:12:00,SystemResetWarning,0823.4,4.99,000.00,027.6,024.2,000.0,036.0,028.5,11.2,0004.7,0020.85,0005.84,0004.63
2023-11-06 23:13:00,SystemResetWarning,0823.4,4.99,000.00,027.5,024.7,000.0,035.9,028.7,11.3,0004.5,0021.73,0005.82,0004.64
2023-11-06 23:14:00,SystemResetWarning,0823.4,5.00,000.00,027.5,025.1,000.0,035.9,028.8,11.3,0004.5,0021.14,0005.82,0004.65
2023-11-06 23:15:00,SystemResetWarning,0823.4,5.00,000.00,027.5,025.4,000.0,035.9,028.9,11.4,0004.4,0020.05,0005.86,0004.66
2023-11-06 23:16:00,SystemResetWarning,0823.3,5.00,000.00,027.5,025.7,000.0,035.9,029.0,11.4,0004.3,0018.98,0005.87,0004.66
2023-11-06 23:17:00,SystemResetWarning,0823.3,4.99,000.00,027.5,026.0,000.0,035.9,029.1,11.2,0004.2,0018.64,0005.87,0004.66
2023-11-06 23:18:00,SystemResetWarning,0823.3,5.00,000.00,027.6,026.2,000.0,035.9,029.2,11.2,0004.0,0018.96,0005.86,0004.67
2023-11-06 23:19:00,SystemResetWarning,0823.4,5.00,000.00,027.6,026.4,000.0,035.9,029.2,11.2,0004.2,0019.07,0005.90,0004.67
2023-11-06 23:20:00,SystemResetWarning,0823.4,5.01,000.00,027.7,026.5,000.0,035.9,029.3,11.0,0004.5,0018.72,0005.89,0004.66
2023-11-06 23:21:00,SystemResetWarning,0823.5,5.01,000.00,027.7,026.7,000.0,035.9,029.3,11.0,0005.2,0019.52,0005.95,0004.66
2023-11-06 23:22:00,SystemResetWarning,0823.5,5.00,000.00,027.7,026.8,000.0,035.9,029.4,11.0,0005.0,0019.48,0005.96,0004.65
2023-11-06 23:23:00,SystemResetWarning,0823.5,4.99,000.00,027.8,026.9,000.0,035.9,029.4,10.9,0004.9,0017.59,0005.95,0004.63
2023-11-06 23:24:00,SystemResetWarning,0823.5,4.99,000.00,027.8,027.0,000.0,036.0,029.4,11.0,0005.1,0016.35,0005.91,0004.60
2023-11-06 23:25:00,SystemResetWarning,0823.6,4.99,000.00,027.8,027.1,000.0,036.0,029.5,10.9,0005.1,0017.01,0005.91,0004.60
2023-11-06 23:26:00,SystemResetWarning,0823.5,5.00,000.00,027.9,027.1,000.0,036.0,029.5,10.6,0005.1,0017.40,0005.83,0004.59
2023-11-06 23:27:00,SystemResetWarning,0823.6,5.00,000.00,027.9,027.2,000.0,036.1,029.6,10.5,0005.2,0017.42,0005.82,0004.59
2023-11-06 23:28:00,SystemResetWarning,0823.6,5.00,000.00,028.0,027.2,000.0,036.1,029.6,10.5,0005.2,0017.67,0005.75,0004.58
2023-11-06 23:29:00,SystemResetWarning,0823.5,5.01,000.00,028.0,027.3,000.0,036.1,029.7,10.4,0005.4,0017.84,0005.76,0004.57
2023-11-06 23:30:00,SystemResetWarning,0823.6,5.01,000.00,028.1,027.4,000.0,036.1,029.7,10.3,0005.6,0017.14,0005.71,0004.55
2023-11-06 23:31:00,SystemResetWarning,0823.7,4.99,000.00,028.1,027.4,000.0,036.2,029.8,10.5,0005.6,0016.95,0005.72,0004.54
2023-11-06 23:32:00,SystemResetWarning,0823.7,5.00,000.00,028.1,026.0,000.0,036.2,029.6,10.6,0005.7,0016.64,0005.68,0004.53
2023-11-06 23:33:00,SystemResetWarning,0823.7,4.99,000.00,028.0,023.7,000.0,036.1,029.3,10.9,0005.7,0016.33,0005.70,0004.52
2023-11-06 23:34:00,SystemResetWarning,0823.7,5.01,000.00,027.8,023.1,000.0,036.1,029.0,11.2,0005.8,0016.35,0005.70,0004.53
2023-11-06 23:35:00,SystemResetWarning,0823.6,5.01,000.00,027.7,023.5,000.0,036.0,028.5,11.3,0000.8,0017.38,0005.73,0004.53
2023-11-06 23:36:00,SystemResetWarning,0823.6,4.99,000.00,027.5,024.0,000.0,036.0,028.5,11.5,0000.0,0017.48,0005.74,0004.52
2023-11-06 23:37:00,SystemResetWarning,0823.6,4.99,000.00,027.5,024.5,000.0,035.9,028.6,11.6,0000.0,0017.97,0005.79,0004.51
2023-11-06 23:38:00,SystemResetWarning,0823.6,5.00,000.00,027.4,024.9,000.0,035.9,028.7,11.6,0000.0,0020.00,0005.81,0004.49
2023-11-06 23:39:00,SystemResetWarning,0823.6,5.00,000.00,027.4,025.3,000.0,035.9,028.8,11.6,0000.0,0019.85,0005.82,0004.49
2023-11-06 23:40:00,SystemResetWarning,0823.6,5.02,000.00,027.4,025.6,000.0,035.8,028.8,11.6,0000.0,0020.44,0005.81,0004.49
2023-11-06 23:41:00,SystemResetWarning,0823.6,5.00,000.00,027.5,025.9,000.0,035.8,028.9,11.5,0001.2,0020.10,0005.81,0004.47
2023-11-06 23:42:00,SystemResetWarning,0823.7,5.00,000.00,027.5,026.1,000.0,035.8,029.0,11.4,0000.6,0020.59,0005.77,0004.47
2023-11-06 23:43:00,SystemResetWarning,0823.6,4.99,000.00,027.5,026.3,000.0,035.8,029.1,11.2,0000.0,0020.64,0005.76,0004.47
2023-11-06 23:44:00,SystemResetWarning,0823.6,5.00,000.00,027.5,026.4,000.0,035.8,029.1,11.1,0000.0,0020.21,0005.69,0004.47
2023-11-06 23:45:00,SystemResetWarning,0823.6,5.00,000.00,027.6,026.5,000.0,035.8,029.2,11.0,0000.0,0019.95,0005.67,0004.47
2023-11-06 23:46:00,SystemResetWarning,0823.5,5.00,000.00,027.6,026.7,000.0,035.9,029.3,10.9,0002.0,0019.27,0005.67,0004.47
2023-11-06 23:47:00,SystemResetWarning,0823.6,5.00,000.00,027.7,026.8,000.0,035.9,029.3,10.9,0004.2,0019.90,0005.68,0004.49
2023-11-06 23:48:00,SystemResetWarning,0823.6,5.00,000.00,027.7,026.8,000.0,035.9,029.4,10.9,0004.9,0019.58,0005.66,0004.50
2023-11-06 23:49:00,SystemResetWarning,0823.6,5.00,000.00,027.7,026.9,000.0,035.9,029.4,10.9,0005.0,0016.73,0005.62,0004.51
2023-11-06 23:50:00,SystemResetWarning,0823.6,5.00,000.00,027.8,027.0,000.0,035.9,029.4,11.1,0005.3,0016.80,0005.61,0004.52
2023-11-06 23:51:00,SystemResetWarning,0823.6,5.00,000.00,027.8,027.0,000.0,036.0,029.4,11.0,0005.7,0016.66,0005.62,0004.52
2023-11-06 23:52:00,SystemResetWarning,0823.7,5.00,000.00,027.9,027.1,000.0,036.0,029.5,11.0,0002.0,0016.50,0005.59,0004.54
2023-11-06 23:53:00,SystemResetWarning,0823.8,4.99,000.00,027.9,027.1,000.0,036.0,029.5,10.9,0000.0,0017.40,0005.64,0004.55
2023-11-06 23:54:00,SystemResetWarning,0823.7,4.99,000.00,027.9,027.2,000.0,036.0,029.5,10.8,0003.8,0017.50,0005.65,0004.56
2023-11-06 23:55:00,SystemResetWarning,0823.7,4.99,000.00,027.9,027.2,000.0,036.1,029.5,10.8,0001.0,0017.72,0005.69,0004.57
2023-11-06 23:56:00,SystemResetWarning,0823.7,5.01,000.00,028.0,027.3,000.0,036.1,029.6,10.7,0006.2,0018.16,0005.70,0004.58
2023-11-06 23:57:00,SystemResetWarning,0823.6,5.00,000.00,028.0,027.3,000.0,036.1,029.6,10.6,0000.0,0018.69,0005.69,0004.57
2023-11-06 23:58:00,SystemResetWarning,0823.6,5.01,000.00,028.1,027.3,000.0,036.2,029.6,10.4,0000.0,0017.58,0005.72,0004.58
2023-11-06 23:59:00,SystemResetWarning,0823.6,4.99,000.00,028.1,027.4,000.0,036.2,029.7,10.4,0000.0,0016.80,0005.78,0004.60
